Macon, GA

1:32 AM EST on December 16, 2017 (GMT -0500)
Middle Georgia Regional

Weather History for KMCN - January, 2013

Change the Weather History Date:

Tuesday, January 1, 2013

  Actual Average Record
Temperature  
Mean Temperature 58 °F 46 °F  
Max Temperature 70 °F 57 °F 78 °F (1985)
Min Temperature 46 °F 35 °F 17 °F (1984)
Degree Days  
Heating Degree Days 7 19  
Month to date heating degree days 7 19  
Since 1 July heating degree days 838 944  
Cooling Degree Days 0 0  
Month to date cooling degree days 0 0  
Year to date cooling degree days 0 0  
Growing Degree Days 8 (Base 50)    
Moisture  
Dew Point 52 °F    
Average Humidity 75    
Maximum Humidity 93    
Minimum Humidity 57    
Precipitation  
Precipitation 0.08 in 0.13 in 2.16 in (1955)
Month to date precipitation 0.08 0.13  
Year to date precipitation 0.08 0.13  
Snow  
Snow 0.00 in 0.00 in 0.00 in (2002)
Month to date snowfall 0.0 0.0  
Since 1 July snowfall 0.0 0.1  
Snow Depth -    
Sea Level Pressure  
Sea Level Pressure 30.02 in    
Wind  
Wind Speed 4 mph (SW)    
Max Wind Speed 15 mph    
Max Gust Speed 20 mph    
Visibility 8 miles    
Events Rain    
T = Trace of Precipitation, MM = Missing Value Source: NWS Daily Summary

Daily Weather History Graph

Daily Weather History Graph

Search for Another Location

Airport or City:

Trip Planner

Search our weather history database for the weather conditions in past years. The results will help you decide how hot, cold, wet, or windy it might be!

Date:

Astronomy

Jan. 01, 2013 Rise Set
Actual Time 7:36 AM EST 5:39 PM EST
Civil Twilight 7:09 AM EST 6:07 PM EST
Nautical Twilight 6:39 AM EST 6:37 PM EST
Astronomical Twilight 6:09 AM EST 7:07 PM EST
Moon 9:54 PM EST (1/1) 10:02 AM EST (1/1)
Length of Visible Light 10h 57m
Length of Day
10h 03m
Waning Gibbous, 83% of the Moon is Illuminated
Jan 1
Waning Gibbous
Jan 4
Last Quarter
Jan 11
New
Jan 18
First Quarter
Jan 26
Full

Hourly Weather History & Observations

Time (EST) Temp. Windchill Dew Point Humidity Pressure Visibility Wind Dir Wind Speed Gust Speed Precip Events Conditions
12:53 AM 46.9 °F - 45.0 °F 93% 30.15 in 10.0 mi Calm Calm - N/A   Overcast
1:53 AM 50.0 °F - 45.0 °F 83% 30.14 in 10.0 mi Calm Calm - N/A   Mostly Cloudy
2:53 AM 50.0 °F - 45.0 °F 83% 30.12 in 10.0 mi South 5.8 mph - N/A   Mostly Cloudy
3:53 AM 48.9 °F - 45.0 °F 86% 30.12 in 10.0 mi Calm Calm - N/A   Clear
4:53 AM 48.0 °F - 45.0 °F 89% 30.10 in 10.0 mi Calm Calm - N/A   Mostly Cloudy
5:53 AM 46.0 °F - 44.1 °F 93% 30.10 in 9.0 mi Calm Calm - N/A   Overcast
6:53 AM 46.4 °F 44.3 °F 44.6 °F 93% 30.10 in 10.0 mi SE 4.6 mph - N/A   Overcast
7:53 AM 46.0 °F 44.8 °F 44.1 °F 93% 30.10 in 8.0 mi SE 3.5 mph - N/A   Mostly Cloudy
8:53 AM 48.0 °F - 46.0 °F 93% 30.10 in 9.0 mi SE 3.5 mph - N/A   Scattered Clouds
9:53 AM 52.0 °F - 46.9 °F 83% 30.10 in 10.0 mi Calm Calm - N/A   Clear
10:53 AM 57.9 °F - 50.0 °F 75% 30.10 in 10.0 mi SW 3.5 mph - N/A   Clear
11:53 AM 63.0 °F - 52.0 °F 67% 30.07 in 10.0 mi Calm Calm - N/A   Clear
12:53 PM 69.1 °F - 54.0 °F 58% 30.03 in 10.0 mi WSW 9.2 mph 17.3 mph N/A   Overcast
1:53 PM 69.1 °F - 54.0 °F 58% 29.99 in 10.0 mi West 6.9 mph - N/A   Mostly Cloudy
2:53 PM 69.1 °F - 55.0 °F 61% 29.97 in 10.0 mi SSW 6.9 mph - N/A   Overcast
3:53 PM 69.1 °F - 55.9 °F 63% 29.97 in 10.0 mi SSW 5.8 mph - N/A   Overcast
4:53 PM 68.0 °F - 55.9 °F 65% 29.96 in 10.0 mi SSW 4.6 mph - N/A   Overcast
5:53 PM 66.9 °F - 55.9 °F 68% 29.95 in 10.0 mi South 3.5 mph - N/A   Overcast
6:53 PM 64.9 °F - 57.0 °F 75% 29.94 in 10.0 mi South 4.6 mph - N/A   Overcast
7:53 PM 66.0 °F - 57.9 °F 75% 29.94 in 10.0 mi SSW 6.9 mph - N/A   Mostly Cloudy
8:53 PM 66.0 °F - 57.9 °F 75% 29.94 in 10.0 mi SSW 8.1 mph - N/A   Overcast
9:53 PM 66.0 °F - 59.0 °F 78% 29.95 in 10.0 mi WSW 10.4 mph 17.3 mph N/A   Overcast
10:05 PM 62.6 °F - 59.0 °F 88% 29.95 in 7.0 mi NNW 6.9 mph - N/A   Overcast
10:15 PM 60.8 °F - 59.0 °F 94% 29.96 in 3.0 mi NNW 6.9 mph - 0.00 in Rain Light Rain
10:21 PM 59.0 °F - 57.2 °F 94% 29.96 in 2.5 mi NNW 10.4 mph - 0.02 in Rain Rain
10:31 PM 57.2 °F - 57.2 °F 100% 29.96 in 5.0 mi NW 9.2 mph - 0.03 in Rain Light Rain
10:53 PM 57.0 °F - 55.9 °F 96% 29.95 in 5.0 mi Calm Calm - 0.03 in   Overcast
11:04 PM 57.2 °F - 55.4 °F 94% 29.95 in 4.0 mi Calm Calm - 0.00 in Rain Light Rain
11:33 PM 57.2 °F - 55.4 °F 94% 29.95 in 3.0 mi Calm Calm - 0.02 in Rain Light Rain
11:40 PM 57.2 °F - 55.4 °F 94% 29.95 in 2.0 mi Calm Calm - 0.04 in Rain Rain
11:53 PM 57.0 °F - 55.9 °F 96% 29.94 in 2.5 mi Calm Calm - 0.05 in Rain Light Rain